When you browse on this site, cookies collect data to enhance your experience and personalize the content and advertising you see.
Visit our Privacy Policy to learn more. By continuing to use the site, you agree to this use of cookies and data.
  • en France
  • Liste des pays
  • À 7 jours
  • Température de l'eau
  • Carte satellitaire
  • Carte météo
  • Widgets météo
  • user-avatar
    Se connecter

    Météo par heure à Lyon

    Ce jour, 20 Mars, Mercredi

    Heure Température Précipitation Vent Pression Humidité
    00:00 +2°C° 0 mm 3 m/s 756 mmHg 81%
    01:00 +3°C° 0 mm 2 m/s 756 mmHg 83%
    02:00 +2°C° 0 mm 2 m/s 757 mmHg 85%
    03:00 +2°C° 0 mm 2 m/s 757 mmHg 87%
    04:00 +2°C° 0 mm 2 m/s 757 mmHg 88%
    05:00 +1°C° 0 mm 2 m/s 757 mmHg 89%
    06:00 +1°C° 0 mm 2 m/s 757 mmHg 89%
    07:00 +3°C° 0 mm 2 m/s 757 mmHg 81%
    08:00 +4°C° 0 mm 3 m/s 757 mmHg 72%
    09:00 +7°C° 0 mm 3 m/s 757 mmHg 63%
    10:00 +7°C° 0 mm 4 m/s 757 mmHg 56%
    11:00 +10°C° 0 mm 4 m/s 756 mmHg 50%
    12:00 +12°C° 0 mm 4 m/s 756 mmHg 43%
    13:00 +12°C° 0 mm 4 m/s 756 mmHg 43%
    14:00 +13°C° 0 mm 5 m/s 756 mmHg 43%
    15:00 +13°C° 0 mm 5 m/s 756 mmHg 43%
    16:00 +12°C° 0 mm 4 m/s 756 mmHg 48%
    17:00 +10°C° 0 mm 4 m/s 756 mmHg 54%
    18:00 +8°C° 0 mm 4 m/s 756 mmHg 59%
    19:00 +8°C° 0 mm 3 m/s 757 mmHg 63%
    20:00 +7°C° 0 mm 3 m/s 757 mmHg 66%
    21:00 +5°C° 0 mm 3 m/s 758 mmHg 70%
    22:00 +5°C° 0 mm 2 m/s 758 mmHg 74%
    23:00 +4°C° 0 mm 2 m/s 758 mmHg 78%

    Demain, 21 Mars, Jeudi

    Heure Température Précipitation Vent Pression Humidité
    00:00 +5°C° 0 mm 1 m/s 758 mmHg 81%
    01:00 +4°C° 0 mm 1 m/s 758 mmHg 83%
    02:00 +4°C° 0 mm 1 m/s 758 mmHg 85%
    03:00 +3°C° 0 mm 1 m/s 758 mmHg 86%
    04:00 +3°C° 0 mm 1 m/s 758 mmHg 87%
    05:00 +2°C° 0 mm 1 m/s 758 mmHg 88%
    06:00 +2°C° 0 mm 1 m/s 758 mmHg 88%
    07:00 +4°C° 0 mm 1 m/s 757 mmHg 79%
    08:00 +6°C° 0 mm 1 m/s 757 mmHg 70%
    09:00 +8°C° 0 mm 1 m/s 757 mmHg 62%
    10:00 +10°C° 0 mm 1 m/s 756 mmHg 57%
    11:00 +12°C° 0 mm 1 m/s 756 mmHg 52%
    12:00 +14°C° 0 mm 1 m/s 755 mmHg 47%
    13:00 +14°C° 0 mm 1 m/s 755 mmHg 47%
    14:00 +15°C° 0 mm 2 m/s 755 mmHg 46%
    15:00 +15°C° 0 mm 2 m/s 754 mmHg 45%
    16:00 +14°C° 0 mm 2 m/s 755 mmHg 52%
    17:00 +12°C° 0 mm 2 m/s 755 mmHg 59%
    18:00 +9°C° 0 mm 2 m/s 755 mmHg 66%
    19:00 +9°C° 0 mm 1 m/s 756 mmHg 70%
    20:00 +8°C° 0 mm 1 m/s 756 mmHg 74%
    21:00 +7°C° 0 mm 1 m/s 756 mmHg 78%
    22:00 +7°C° 0 mm 1 m/s 757 mmHg 79%
    23:00 +7°C° 0 mm 1 m/s 757 mmHg 80%

    Après-demain, 22 Mars, Vendredi

    Heure Température Précipitation Vent Pression Humidité
    00:00 +6°C° 0 mm 1 m/s 757 mmHg 80%
    01:00 +6°C° 0 mm 1 m/s 756 mmHg 81%
    02:00 +6°C° 0 mm 1 m/s 756 mmHg 82%
    03:00 +5°C° 0 mm 1 m/s 756 mmHg 83%
    04:00 +5°C° 0 mm 1 m/s 756 mmHg 83%
    05:00 +5°C° 0 mm 1 m/s 756 mmHg 84%
    06:00 +4°C° 0 mm 0 m/s 756 mmHg 84%
    07:00 +7°C° 0 mm 1 m/s 756 mmHg 75%
    08:00 +10°C° 0 mm 1 m/s 755 mmHg 66%
    09:00 +12°C° 0 mm 1 m/s 755 mmHg 58%
    10:00 +14°C° 0 mm 1 m/s 755 mmHg 53%
    11:00 +16°C° 0 mm 1 m/s 754 mmHg 47%
    12:00 +19°C° 0 mm 1 m/s 754 mmHg 42%
    13:00 +19°C° 0 mm 1 m/s 754 mmHg 41%
    14:00 +20°C° 0 mm 1 m/s 753 mmHg 40%
    15:00 +20°C° 0 mm 1 m/s 753 mmHg 39%
    16:00 +18°C° 0 mm 1 m/s 753 mmHg 45%
    17:00 +15°C° 0 mm 1 m/s 753 mmHg 51%
    18:00 +12°C° 0 mm 0 m/s 754 mmHg 57%
    19:00 +11°C° 0 mm 0 m/s 754 mmHg 60%
    20:00 +10°C° 0 mm 0 m/s 755 mmHg 63%
    21:00 +11°C° 0 mm 1 m/s 755 mmHg 66%
    22:00 +9°C° 0 mm 0 m/s 755 mmHg 69%
    23:00 +8°C° 0 mm 0 m/s 755 mmHg 71%

    23 Mars, Samedi

    Heure Température Précipitation Vent Pression Humidité
    00:00 +8°C° 0 mm 0 m/s 755 mmHg 73%
    01:00 +7°C° 0 mm 0 m/s 755 mmHg 75%
    02:00 +7°C° 0 mm 0 m/s 755 mmHg 76%
    03:00 +7°C° 0 mm 0 m/s 755 mmHg 78%
    04:00 +6°C° 0 mm 0 m/s 755 mmHg 79%
    05:00 +6°C° 0 mm 0 m/s 755 mmHg 80%
    06:00 +6°C° 0 mm 0 m/s 755 mmHg 80%
    07:00 +8°C° 0 mm 0 m/s 754 mmHg 73%
    08:00 +10°C° 0 mm 0 m/s 754 mmHg 65%
    09:00 +14°C° 0 mm 1 m/s 754 mmHg 57%
    10:00 +15°C° 0 mm 1 m/s 754 mmHg 51%
    11:00 +18°C° 0 mm 1 m/s 753 mmHg 45%
    12:00 +18°C° 0 mm 2 m/s 753 mmHg 39%
    13:00 +19°C° 0 mm 2 m/s 752 mmHg 39%
    14:00 +19°C° 0 mm 2 m/s 752 mmHg 38%
    15:00 +19°C° 0 mm 2 m/s 752 mmHg 38%
    16:00 +18°C° 0 mm 2 m/s 752 mmHg 45%
    17:00 +16°C° 0 mm 2 m/s 752 mmHg 52%
    18:00 +14°C° 0 mm 2 m/s 752 mmHg 59%
    19:00 +13°C° 0 mm 1 m/s 752 mmHg 64%
    20:00 +12°C° 0 mm 1 m/s 753 mmHg 69%
    21:00 +11°C° 0 mm 1 m/s 753 mmHg 74%
    22:00 +10°C° 0 mm 1 m/s 753 mmHg 75%
    23:00 +10°C° 0 mm 1 m/s 753 mmHg 77%

    24 Mars, Dimanche

    Heure Température Précipitation Vent Pression Humidité
    00:00 +9°C° 0 mm 1 m/s 753 mmHg 78%
    01:00 +9°C° 0 mm 1 m/s 753 mmHg 80%
    02:00 +7°C° 0 mm 0 m/s 753 mmHg 81%
    03:00 +7°C° 0 mm 0 m/s 753 mmHg 82%
    04:00 +7°C° 0 mm 0 m/s 753 mmHg 82%
    05:00 +6°C° 0 mm 0 m/s 753 mmHg 83%
    06:00 +6°C° 0 mm 0 m/s 753 mmHg 84%
    07:00 +9°C° 0 mm 1 m/s 753 mmHg 76%
    08:00 +11°C° 0 mm 1 m/s 753 mmHg 69%
    09:00 +14°C° 0 mm 1 m/s 753 mmHg 62%
    10:00 +15°C° 0 mm 2 m/s 753 mmHg 57%
    11:00 +17°C° 0 mm 2 m/s 753 mmHg 52%
    12:00 +18°C° 0 mm 2 m/s 752 mmHg 47%
    13:00 +18°C° 0 mm 3 m/s 752 mmHg 47%
    14:00 +18°C° 0 mm 3 m/s 752 mmHg 47%
    15:00 +19°C° 0 mm 4 m/s 751 mmHg 47%
    16:00 +17°C° 0 mm 4 m/s 752 mmHg 53%
    17:00 +14°C° 0 mm 3 m/s 752 mmHg 60%
    18:00 +13°C° 0 mm 3 m/s 752 mmHg 67%
    19:00 +12°C° 0 mm 3 m/s 753 mmHg 71%
    20:00 +11°C° 0 mm 3 m/s 753 mmHg 75%
    21:00 +10°C° 0 mm 3 m/s 754 mmHg 78%
    22:00 +10°C° 0 mm 3 m/s 754 mmHg 81%
    23:00 +9°C° 0 mm 3 m/s 754 mmHg 85%

    25 Mars, Lundi

    Heure Température Précipitation Vent Pression Humidité
    00:00 +8°C° 0 mm 3 m/s 754 mmHg 88%
    01:00 +8°C° 0 mm 3 m/s 754 mmHg 89%
    02:00 +7°C° 0 mm 4 m/s 754 mmHg 90%
    03:00 +7°C° 0 mm 4 m/s 754 mmHg 91%
    04:00 +7°C° 0 mm 4 m/s 754 mmHg 90%
    05:00 +7°C° 0 mm 5 m/s 754 mmHg 88%
    06:00 +7°C° 0 mm 5 m/s 754 mmHg 87%
    07:00 +7°C° 0 mm 5 m/s 754 mmHg 84%
    08:00 +7°C° 0 mm 5 m/s 754 mmHg 82%
    09:00 +7°C° 0 mm 5 m/s 754 mmHg 80%
    10:00 +8°C° 0 mm 5 m/s 754 mmHg 72%
    11:00 +10°C° 0 mm 6 m/s 754 mmHg 64%
    12:00 +13°C° 0 mm 6 m/s 754 mmHg 56%
    13:00 +13°C° 0 mm 6 m/s 753 mmHg 54%
    14:00 +13°C° 0 mm 6 m/s 753 mmHg 51%
    15:00 +13°C° 0 mm 6 m/s 753 mmHg 48%
    16:00 +11°C° 0 mm 6 m/s 753 mmHg 54%
    17:00 +10°C° 0 mm 6 m/s 753 mmHg 59%
    18:00 +9°C° 0 mm 6 m/s 753 mmHg 65%
    19:00 +8°C° 0 mm 6 m/s 754 mmHg 67%
    20:00 +7°C° 0 mm 5 m/s 754 mmHg 70%
    21:00 +6°C° 0 mm 5 m/s 755 mmHg 72%
    22:00 +6°C° 0 mm 5 m/s 755 mmHg 74%
    23:00 +5°C° 0 mm 5 m/s 755 mmHg 75%
    Voir plus